Location: Skoghall
(59.3232°N, 13.4653°E)
Time: 02:13:46
(UTC+01:00)

ISS - Visible Passes

Search period start: 02 December 2021 00:00
Search period end: 12 December 2021 00:00
Orbit: 417 x 423 km, 51.6° (Epoch: 01 December)

Date Brightness Start Highest point End Pass type
(mag) Time Alt. Az. Time Alt. Az. Time Alt. Az.
02 Dec -1.6 16:21:52 10° SW 16:24:36 22° S 16:27:20 10° SE visible
02 Dec -1.3 17:58:20 10° WSW 18:00:43 18° SSW 18:02:15 14° SSE visible
03 Dec -1.4 17:11:08 10° WSW 17:13:42 20° SSW 17:16:16 10° SE visible
04 Dec -1.4 16:24:00 10° WSW 16:26:41 22° S 16:29:22 10° SE visible
04 Dec -0.8 18:01:10 10° SW 18:02:40 12° SSW 18:04:10 10° S visible
05 Dec -0.9 17:13:39 10° WSW 17:15:41 15° SSW 17:17:44 10° SSE visible
06 Dec -0.9 16:26:19 10° WSW 16:28:40 18° SSW 16:31:02 10° SSE visible
08 Dec -0.5 16:29:06 10° SW 16:30:33 12° SSW 16:32:00 10° S visible
